This demonstration page uses our WeatherBlox Daily Observations layout. Learn more.

Left ArrowRight Arrow

Hourly Observations for June 20, 2017

Temp ( °F °C ) Dew Point ( °F °C ) Humidity (%) Winds ( mph kmh ) Pressure ( in mb ) Visibility ( mi km ) Precip ( " mm )
12:52 am 00:52 Clear 64 17.8 62 16.7 93 93 S 5 7 30.07 1018 10 16 0.00 0.00
1:52 am 01:52 Clear 64 17.8 61 16.1 90 90 S 3 6 30.06 1018 10 16 0.00 0.00
2:52 am 02:52 Clear 64 17.8 61 16.1 90 90 S 5 7 30.05 1018 10 16 0.00 0.00
3:52 am 03:52 Clear 63 17.2 61 16.1 93 93 S 5 7 30.05 1018 10 16 0.00 0.00
4:52 am 04:52 Clear 62 16.7 60 15.6 93 93 SSE 5 7 30.05 1018 10 16 0.00 0.00
5:52 am 05:52 Clear 61 16.1 59 15 93 93 SSE 3 6 30.05 1018 10 16 0.00 0.00
6:52 am 06:52 Sunny 64 17.8 62 16.7 93 93 SSE 3 6 30.06 1018 10 16 0.00 0.00
7:52 am 07:52 Sunny 69 20.6 63 17.2 81 81 S 6 9 30.06 1018 10 16 0.00 0.00
8:52 am 08:52 Sunny 76 24.4 63 17.2 64 64 Calm 30.06 1018 10 16 0.00 0.00
9:52 am 09:52 Sunny 81 27.2 60 15.6 49 49 SSW 7 11 30.06 1018 10 16 0.00 0.00
10:52 am 10:52 Sunny 83 28.3 60 15.6 46 46 WSW 7 11 30.05 1018 10 16 0.00 0.00
11:52 am 11:52 Sunny 85 29.4 60 15.6 43 43 SW 8 13 30.04 1017 10 16 0.00 0.00
12:52 pm 12:52 Sunny 87 30.6 60 15.6 40 40 W 8 13 30.03 1017 10 16 0.00 0.00
1:52 pm 13:52 Sunny 88 31.1 61 16.1 40 40 W 9 15 30.01 1016 10 16 0.00 0.00
2:52 pm 14:52 Sunny 88 31.1 59 15 38 38 VRB 7 11 30.00 1016 10 16 0.00 0.00
3:52 pm 15:52 Sunny 89 31.7 61 16.1 39 39 W 8 13 29.98 1015 10 16 0.00 0.00
4:52 pm 16:52 Sunny 88 31.1 61 16.1 40 40 SW 7 11 29.96 1015 10 16 0.00 0.00
5:52 pm 17:52 Sunny 88 31.1 62 16.7 42 42 SW 6 9 29.94 1014 10 16 0.00 0.00
6:52 pm 18:52 Sunny 87 30.6 62 16.7 43 43 SW 6 9 29.93 1014 10 16 0.00 0.00
7:52 pm 19:52 Sunny 83 28.3 66 18.9 57 57 S 5 7 29.93 1014 10 16 0.00 0.00
8:52 pm 20:52 Clear 78 25.6 66 18.9 67 67 S 5 7 29.94 1014 10 16 0.00 0.00
9:52 pm 21:52 Clear 76 24.4 65 18.3 69 69 SSW 6 9 29.96 1015 10 16 0.00 0.00
10:52 pm 22:52 Clear 75 23.9 65 18.3 71 71 S 9 15 29.98 1015 10 16 0.00 0.00
11:52 pm 23:52 Clear 72 22.2 66 18.9 82 82 S 8 13 29.96 1015 10 16 0.00 0.00

Powered by AerisWeather